Year,Month,Day,Hour,Minute,Value (Times are PST for temperature in C)
2012,07,05,00,00,12.80
2012,07,05,00,01,12.80
2012,07,05,00,02,12.80
2012,07,05,00,03,12.80
2012,07,05,00,04,12.80
2012,07,05,00,05,12.80
2012,07,05,00,06,12.80
2012,07,05,00,07,12.80
2012,07,05,00,08,12.80
2012,07,05,00,09,12.70
2012,07,05,00,10,12.70
2012,07,05,00,11,12.70
2012,07,05,00,12,12.60
2012,07,05,00,13,12.60
2012,07,05,00,14,12.50
2012,07,05,00,15,12.50
2012,07,05,00,16,12.50
2012,07,05,00,17,12.50
2012,07,05,00,18,12.40
2012,07,05,00,19,12.40
2012,07,05,00,20,12.40
2012,07,05,00,21,12.30
2012,07,05,00,22,12.30
2012,07,05,00,23,12.30
2012,07,05,00,24,12.30
2012,07,05,00,25,12.30
2012,07,05,00,26,12.20
2012,07,05,00,27,12.20
2012,07,05,00,28,12.10
2012,07,05,00,29,12.10
2012,07,05,00,30,12.10
2012,07,05,00,31,12.00
2012,07,05,00,32,12.00
2012,07,05,00,33,12.00
2012,07,05,00,34,11.90
2012,07,05,00,35,11.90
2012,07,05,00,36,11.90
2012,07,05,00,37,11.90
2012,07,05,00,38,11.90
2012,07,05,00,39,11.80
2012,07,05,00,40,11.80
2012,07,05,00,41,11.80
2012,07,05,00,42,11.80
2012,07,05,00,43,11.80
2012,07,05,00,44,11.70
2012,07,05,00,45,11.70
2012,07,05,00,46,11.70
2012,07,05,00,47,11.60
2012,07,05,00,48,11.60
2012,07,05,00,49,11.60
2012,07,05,00,50,11.60
2012,07,05,00,51,11.50
2012,07,05,00,52,11.40
2012,07,05,00,53,11.40
2012,07,05,00,54,11.40
2012,07,05,00,55,11.30
2012,07,05,00,56,11.30
2012,07,05,00,57,11.30
2012,07,05,00,58,11.20
2012,07,05,00,59,11.20
2012,07,05,01,00,11.20
2012,07,05,01,01,11.20
2012,07,05,01,02,11.20
2012,07,05,01,03,11.10
2012,07,05,01,04,11.10
2012,07,05,01,05,11.10
2012,07,05,01,06,11.10
2012,07,05,01,07,11.10
2012,07,05,01,08,11.10
2012,07,05,01,09,11.10
2012,07,05,01,10,11.10
2012,07,05,01,11,11.10
2012,07,05,01,12,11.10
2012,07,05,01,13,11.10
2012,07,05,01,14,11.10
2012,07,05,01,15,11.10
2012,07,05,01,16,11.10
2012,07,05,01,17,11.10
2012,07,05,01,18,10.90
2012,07,05,01,19,10.90
2012,07,05,01,20,10.90
2012,07,05,01,21,10.90
2012,07,05,01,22,10.90
2012,07,05,01,23,10.90
2012,07,05,01,24,10.80
2012,07,05,01,25,10.80
2012,07,05,01,26,10.80
2012,07,05,01,27,10.70
2012,07,05,01,28,10.70
2012,07,05,01,29,10.70
2012,07,05,01,30,10.60
2012,07,05,01,31,10.60
2012,07,05,01,32,10.60
2012,07,05,01,33,10.60
2012,07,05,01,34,10.60
2012,07,05,01,35,10.60
2012,07,05,01,36,10.60
2012,07,05,01,37,10.60
2012,07,05,01,38,10.60
2012,07,05,01,39,10.60
2012,07,05,01,40,10.60
2012,07,05,01,41,10.50
2012,07,05,01,42,10.40
2012,07,05,01,43,10.40
2012,07,05,01,44,10.40
2012,07,05,01,45,10.40
2012,07,05,01,46,10.40
2012,07,05,01,47,10.40
2012,07,05,01,48,10.40
2012,07,05,01,49,10.40
2012,07,05,01,50,10.40
2012,07,05,01,51,10.40
2012,07,05,01,52,10.40
2012,07,05,01,53,10.40
2012,07,05,01,54,10.40
2012,07,05,01,55,10.40
2012,07,05,01,56,10.30
2012,07,05,01,57,10.30
2012,07,05,01,58,10.30
2012,07,05,01,59,10.30
2012,07,05,02,00,10.30
2012,07,05,02,01,10.30
2012,07,05,02,02,10.30
2012,07,05,02,03,10.30
2012,07,05,02,04,10.40
2012,07,05,02,05,10.40
2012,07,05,02,06,10.40
2012,07,05,02,07,10.40
2012,07,05,02,08,10.40
2012,07,05,02,09,10.40
2012,07,05,02,10,10.30
2012,07,05,02,11,10.30
2012,07,05,02,12,10.30
2012,07,05,02,13,10.30
2012,07,05,02,14,10.30
2012,07,05,02,15,10.20
2012,07,05,02,16,10.20
2012,07,05,02,17,10.20
2012,07,05,02,18,10.20
2012,07,05,02,19,10.20
2012,07,05,02,20,10.10
2012,07,05,02,21,10.10
2012,07,05,02,22,10.10
2012,07,05,02,23,10.10
2012,07,05,02,24,10.10
2012,07,05,02,25,10.10
2012,07,05,02,26,10.10
2012,07,05,02,27,10.10
2012,07,05,02,28,10.10
2012,07,05,02,29,9.90
2012,07,05,02,30,9.90
2012,07,05,02,31,9.90
2012,07,05,02,32,9.90
2012,07,05,02,33,9.90
2012,07,05,02,34,9.90
2012,07,05,02,35,9.90
2012,07,05,02,36,9.90
2012,07,05,02,37,9.80
2012,07,05,02,38,9.80
2012,07,05,02,39,9.80
2012,07,05,02,40,9.80
2012,07,05,02,41,9.70
2012,07,05,02,42,9.70
2012,07,05,02,43,9.70
2012,07,05,02,44,9.70
2012,07,05,02,45,9.70
2012,07,05,02,46,9.70
2012,07,05,02,47,9.60
2012,07,05,02,48,9.60
2012,07,05,02,49,9.60
2012,07,05,02,50,9.60
2012,07,05,02,51,9.50
2012,07,05,02,52,9.50
2012,07,05,02,53,9.50
2012,07,05,02,54,9.40
2012,07,05,02,55,9.40
2012,07,05,02,56,9.40
2012,07,05,02,57,9.40
2012,07,05,02,58,9.40
2012,07,05,02,59,9.40
2012,07,05,03,00,9.40
2012,07,05,03,01,9.40
2012,07,05,03,02,9.40
2012,07,05,03,03,9.40
2012,07,05,03,04,9.40
2012,07,05,03,05,9.40
2012,07,05,03,06,9.30
2012,07,05,03,07,9.30
2012,07,05,03,08,9.30
2012,07,05,03,09,9.30
2012,07,05,03,10,9.30
2012,07,05,03,11,9.30
2012,07,05,03,12,9.30
2012,07,05,03,13,9.30
2012,07,05,03,14,9.20
2012,07,05,03,15,9.20
2012,07,05,03,16,9.20
2012,07,05,03,17,9.20
2012,07,05,03,18,9.20
2012,07,05,03,19,9.20
2012,07,05,03,20,9.20
2012,07,05,03,21,9.20
2012,07,05,03,22,9.20
2012,07,05,03,23,9.20
2012,07,05,03,24,9.20
2012,07,05,03,25,9.10
2012,07,05,03,26,9.10
2012,07,05,03,27,9.10
2012,07,05,03,28,9.10
2012,07,05,03,29,9.10
2012,07,05,03,30,9.10
2012,07,05,03,31,9.10
2012,07,05,03,32,9.10
2012,07,05,03,33,9.10
2012,07,05,03,34,9.00
2012,07,05,03,35,9.00
2012,07,05,03,36,9.00
2012,07,05,03,37,9.00
2012,07,05,03,38,9.00
2012,07,05,03,39,9.00
2012,07,05,03,40,9.00
2012,07,05,03,41,9.00
2012,07,05,03,42,8.90
2012,07,05,03,43,8.90
2012,07,05,03,44,8.90
2012,07,05,03,45,8.90
2012,07,05,03,46,8.90
2012,07,05,03,47,8.90
2012,07,05,03,48,8.80
2012,07,05,03,49,8.80
2012,07,05,03,50,8.80
2012,07,05,03,51,8.80
2012,07,05,03,52,8.80
2012,07,05,03,53,8.80
2012,07,05,03,54,8.70
2012,07,05,03,55,8.70
2012,07,05,03,56,8.70
2012,07,05,03,57,8.70
2012,07,05,03,58,8.70
2012,07,05,03,59,8.70
2012,07,05,04,00,8.70
2012,07,05,04,01,8.70
2012,07,05,04,02,8.70
2012,07,05,04,03,8.70
2012,07,05,04,04,8.70
2012,07,05,04,05,8.60
2012,07,05,04,06,8.60
2012,07,05,04,07,8.60
2012,07,05,04,08,8.60
2012,07,05,04,09,8.50
2012,07,05,04,10,8.50
2012,07,05,04,11,8.50
2012,07,05,04,12,8.50
2012,07,05,04,13,8.50
2012,07,05,04,14,8.50
2012,07,05,04,15,8.50
2012,07,05,04,16,8.40
2012,07,05,04,17,8.40
2012,07,05,04,18,8.40
2012,07,05,04,19,8.40
2012,07,05,04,20,8.40
2012,07,05,04,21,8.40
2012,07,05,04,22,8.40
2012,07,05,04,23,8.40
2012,07,05,04,24,8.30
2012,07,05,04,25,8.30
2012,07,05,04,26,8.30
2012,07,05,04,27,8.30
2012,07,05,04,28,8.30
2012,07,05,04,29,8.30
2012,07,05,04,30,8.30
2012,07,05,04,31,8.20
2012,07,05,04,32,8.20
2012,07,05,04,33,8.20
2012,07,05,04,34,8.20
2012,07,05,04,35,8.20
2012,07,05,04,36,8.20
2012,07,05,04,37,8.20
2012,07,05,04,38,8.20
2012,07,05,04,39,8.20
2012,07,05,04,40,8.20
2012,07,05,04,41,8.20
2012,07,05,04,42,8.20
2012,07,05,04,43,8.10
2012,07,05,04,44,8.10
2012,07,05,04,45,8.10
2012,07,05,04,46,8.10
2012,07,05,04,47,8.10
2012,07,05,04,48,8.00
2012,07,05,04,49,8.00
2012,07,05,04,50,8.00
2012,07,05,04,51,8.00
2012,07,05,04,52,8.00
2012,07,05,04,53,7.90
2012,07,05,04,54,7.90
2012,07,05,04,55,7.90
2012,07,05,04,56,7.90
2012,07,05,04,57,7.90
2012,07,05,04,58,7.90
2012,07,05,04,59,7.90
2012,07,05,05,00,7.90
2012,07,05,05,01,7.90
2012,07,05,05,02,7.90
2012,07,05,05,03,7.90
2012,07,05,05,04,7.90
2012,07,05,05,05,7.90
2012,07,05,05,06,7.80
2012,07,05,05,07,7.80
2012,07,05,05,08,7.80
2012,07,05,05,09,7.80
2012,07,05,05,10,7.80
2012,07,05,05,11,7.80
2012,07,05,05,12,7.80
2012,07,05,05,13,7.80
2012,07,05,05,14,7.80
2012,07,05,05,15,7.80
2012,07,05,05,16,7.80
2012,07,05,05,17,7.80
2012,07,05,05,18,7.80
2012,07,05,05,19,7.80
2012,07,05,05,20,7.80
2012,07,05,05,21,7.80
2012,07,05,05,22,7.80
2012,07,05,05,23,7.80
2012,07,05,05,24,7.80
2012,07,05,05,25,7.80
2012,07,05,05,26,7.70
2012,07,05,05,27,7.70
2012,07,05,05,28,7.70
2012,07,05,05,29,7.70
2012,07,05,05,30,7.70
2012,07,05,05,31,7.60
2012,07,05,05,32,7.60
2012,07,05,05,33,7.60
2012,07,05,05,34,7.60
2012,07,05,05,35,7.60
2012,07,05,05,36,7.60
2012,07,05,05,37,7.60
2012,07,05,05,38,7.60
2012,07,05,05,39,7.70
2012,07,05,05,40,7.70
2012,07,05,05,41,7.70
2012,07,05,05,42,7.70
2012,07,05,05,43,7.70
2012,07,05,05,44,7.70
2012,07,05,05,45,7.70
2012,07,05,05,46,7.70
2012,07,05,05,47,7.70
2012,07,05,05,48,7.70
2012,07,05,05,49,7.70
2012,07,05,05,50,7.80
2012,07,05,05,51,7.80
2012,07,05,05,52,7.80
2012,07,05,05,53,7.80
2012,07,05,05,54,7.80
2012,07,05,05,55,7.80
2012,07,05,05,56,7.80
2012,07,05,05,57,7.80
2012,07,05,05,58,7.80
2012,07,05,05,59,7.80
2012,07,05,06,00,7.80
2012,07,05,06,01,7.90
2012,07,05,06,02,7.90
2012,07,05,06,03,7.90
2012,07,05,06,04,7.90
2012,07,05,06,05,8.00
2012,07,05,06,06,8.00
2012,07,05,06,07,8.00
2012,07,05,06,08,8.10
2012,07,05,06,09,8.10
2012,07,05,06,10,8.10
2012,07,05,06,11,8.20
2012,07,05,06,12,8.20
2012,07,05,06,13,8.30
2012,07,05,06,14,8.30
2012,07,05,06,15,8.40
2012,07,05,06,16,8.50
2012,07,05,06,17,8.60
2012,07,05,06,18,8.60
2012,07,05,06,19,8.70
2012,07,05,06,20,8.70
2012,07,05,06,21,8.70
2012,07,05,06,22,8.80
2012,07,05,06,23,8.80
2012,07,05,06,24,8.90
2012,07,05,06,25,8.90
2012,07,05,06,26,9.00
2012,07,05,06,27,9.00
2012,07,05,06,28,9.10
2012,07,05,06,29,9.10
2012,07,05,06,30,9.20
2012,07,05,06,31,9.20
2012,07,05,06,32,9.20
2012,07,05,06,33,9.20
2012,07,05,06,34,9.30
2012,07,05,06,35,9.30
2012,07,05,06,36,9.40
2012,07,05,06,37,9.40
2012,07,05,06,38,9.40
2012,07,05,06,39,9.50
2012,07,05,06,40,9.60
2012,07,05,06,41,9.60
2012,07,05,06,42,9.70
2012,07,05,06,43,9.70
2012,07,05,06,44,9.80
2012,07,05,06,45,9.90
2012,07,05,06,46,9.90
2012,07,05,06,47,10.10
2012,07,05,06,48,10.10
2012,07,05,06,49,10.20
2012,07,05,06,50,10.30
2012,07,05,06,51,10.40
2012,07,05,06,52,10.50
2012,07,05,06,53,10.60
2012,07,05,06,54,10.70
2012,07,05,06,55,10.70
2012,07,05,06,56,10.80
2012,07,05,06,57,10.90
2012,07,05,06,58,11.10
2012,07,05,06,59,11.20
2012,07,05,07,00,11.30
2012,07,05,07,01,11.30
2012,07,05,07,02,11.40
2012,07,05,07,03,11.60
2012,07,05,07,04,11.60
2012,07,05,07,05,11.70
2012,07,05,07,06,11.70
2012,07,05,07,07,11.80
2012,07,05,07,08,11.80
2012,07,05,07,09,11.90
2012,07,05,07,10,12.00
2012,07,05,07,11,12.00
2012,07,05,07,12,12.10
2012,07,05,07,13,12.20
2012,07,05,07,14,12.30
2012,07,05,07,15,12.30
2012,07,05,07,16,12.30
2012,07,05,07,17,12.40
2012,07,05,07,18,12.50
2012,07,05,07,19,12.50
2012,07,05,07,20,12.60
2012,07,05,07,21,12.70
2012,07,05,07,22,12.80
2012,07,05,07,23,12.80
2012,07,05,07,24,13.00
2012,07,05,07,25,13.00
2012,07,05,07,26,13.10
2012,07,05,07,27,13.10
2012,07,05,07,28,13.20
2012,07,05,07,29,13.30
2012,07,05,07,30,13.30
2012,07,05,07,31,13.30
2012,07,05,07,32,13.40
2012,07,05,07,33,13.40
2012,07,05,07,34,13.40
2012,07,05,07,35,13.40
2012,07,05,07,36,13.50
2012,07,05,07,37,13.50
2012,07,05,07,38,13.60
2012,07,05,07,39,13.70
2012,07,05,07,40,13.70
2012,07,05,07,41,13.80
2012,07,05,07,42,13.90
2012,07,05,07,43,14.00
2012,07,05,07,44,14.20
2012,07,05,07,45,14.30
2012,07,05,07,46,14.40
2012,07,05,07,47,14.50
2012,07,05,07,48,14.60
2012,07,05,07,49,14.70
2012,07,05,07,50,14.80
2012,07,05,07,51,14.90
2012,07,05,07,52,14.90
2012,07,05,07,53,15.00
2012,07,05,07,54,15.10
2012,07,05,07,55,15.20
2012,07,05,07,56,15.30
2012,07,05,07,57,15.30
2012,07,05,07,58,15.40
2012,07,05,07,59,15.50
2012,07,05,08,00,15.60
2012,07,05,08,01,15.60
2012,07,05,08,02,15.70
2012,07,05,08,03,15.80
2012,07,05,08,04,15.80
2012,07,05,08,05,15.80
2012,07,05,08,06,15.90
2012,07,05,08,07,16.10
2012,07,05,08,08,16.00
2012,07,05,08,09,15.90
2012,07,05,08,10,15.80
2012,07,05,08,11,15.80
2012,07,05,08,12,15.80
2012,07,05,08,13,15.80
2012,07,05,08,14,15.80
2012,07,05,08,15,15.80
2012,07,05,08,16,15.90
2012,07,05,08,17,16.00
2012,07,05,08,18,15.90
2012,07,05,08,19,15.80
2012,07,05,08,20,15.80
2012,07,05,08,21,15.80
2012,07,05,08,22,15.80
2012,07,05,08,23,15.80
2012,07,05,08,24,15.90
2012,07,05,08,25,15.90
2012,07,05,08,26,16.10
2012,07,05,08,27,16.00
2012,07,05,08,28,15.80
2012,07,05,08,29,15.70
2012,07,05,08,30,15.70
2012,07,05,08,31,15.70
2012,07,05,08,32,15.70
2012,07,05,08,33,15.80
2012,07,05,08,34,15.80
2012,07,05,08,35,15.80
2012,07,05,08,36,15.90
2012,07,05,08,37,15.90
2012,07,05,08,38,16.00
2012,07,05,08,39,16.10
2012,07,05,08,40,16.20
2012,07,05,08,41,16.20
2012,07,05,08,42,16.30
2012,07,05,08,43,16.30
2012,07,05,08,44,16.30
2012,07,05,08,45,16.40
2012,07,05,08,46,16.40
2012,07,05,08,47,16.50
2012,07,05,08,48,16.60
2012,07,05,08,49,16.60
2012,07,05,08,50,16.70
2012,07,05,08,51,16.70
2012,07,05,08,52,16.70
2012,07,05,08,53,16.70
2012,07,05,08,54,16.70
2012,07,05,08,55,16.70
2012,07,05,08,56,16.70
2012,07,05,08,57,16.70
2012,07,05,08,58,16.70
2012,07,05,08,59,16.70
2012,07,05,09,00,16.70
2012,07,05,09,01,16.80
2012,07,05,09,02,16.80
2012,07,05,09,03,16.90
2012,07,05,09,04,16.90
2012,07,05,09,05,16.90
2012,07,05,09,06,17.00
2012,07,05,09,07,17.00
2012,07,05,09,08,17.00
2012,07,05,09,09,17.00
2012,07,05,09,10,17.00
2012,07,05,09,11,17.10
2012,07,05,09,12,17.20
2012,07,05,09,13,17.30
2012,07,05,09,14,17.20
2012,07,05,09,15,17.30
2012,07,05,09,16,17.30
2012,07,05,09,17,17.30
2012,07,05,09,18,17.30
2012,07,05,09,19,17.30
2012,07,05,09,20,17.30
2012,07,05,09,21,17.30
2012,07,05,09,22,17.30
2012,07,05,09,23,17.30
2012,07,05,09,24,17.40
2012,07,05,09,25,17.40
2012,07,05,09,26,17.50
2012,07,05,09,27,17.50
2012,07,05,09,28,17.50
2012,07,05,09,29,17.60
2012,07,05,09,30,17.70
2012,07,05,09,31,17.70
2012,07,05,09,32,17.70
2012,07,05,09,33,17.70
2012,07,05,09,34,17.70
2012,07,05,09,35,17.50
2012,07,05,09,36,17.50
2012,07,05,09,37,17.50
2012,07,05,09,38,17.60
2012,07,05,09,39,17.70
2012,07,05,09,40,17.60
2012,07,05,09,41,17.40
2012,07,05,09,42,17.30
2012,07,05,09,43,17.20
2012,07,05,09,44,17.10
2012,07,05,09,45,17.00
2012,07,05,09,46,16.80
2012,07,05,09,47,16.70
2012,07,05,09,48,16.60
2012,07,05,09,49,16.60
2012,07,05,09,50,16.50
2012,07,05,09,51,16.40
2012,07,05,09,52,16.40
2012,07,05,09,53,16.40
2012,07,05,09,54,16.40
2012,07,05,09,55,16.40
2012,07,05,09,56,16.40
2012,07,05,09,57,16.50
2012,07,05,09,58,16.60
2012,07,05,09,59,16.50
2012,07,05,10,00,16.40
2012,07,05,10,01,16.20
2012,07,05,10,02,16.00
2012,07,05,10,03,15.90
2012,07,05,10,04,15.80
2012,07,05,10,05,15.80
2012,07,05,10,06,15.80
2012,07,05,10,07,15.70
2012,07,05,10,08,15.40
2012,07,05,10,09,15.30
2012,07,05,10,10,15.20
2012,07,05,10,11,15.20
2012,07,05,10,12,15.30
2012,07,05,10,13,15.40
2012,07,05,10,14,15.60
2012,07,05,10,15,15.70
2012,07,05,10,16,15.90
2012,07,05,10,17,15.90
2012,07,05,10,18,16.00
2012,07,05,10,19,16.10
2012,07,05,10,20,16.20
2012,07,05,10,21,16.40
2012,07,05,10,22,16.40
2012,07,05,10,23,16.50
2012,07,05,10,24,16.60
2012,07,05,10,25,16.70
2012,07,05,10,26,16.80
2012,07,05,10,27,16.90
2012,07,05,10,28,16.90
2012,07,05,10,29,16.90
2012,07,05,10,30,16.80
2012,07,05,10,31,16.60
2012,07,05,10,32,16.50
2012,07,05,10,33,16.30
2012,07,05,10,34,16.00
2012,07,05,10,35,15.90
2012,07,05,10,36,15.80
2012,07,05,10,37,15.80
2012,07,05,10,38,15.70
2012,07,05,10,39,15.70
2012,07,05,10,40,15.70
2012,07,05,10,41,15.90
2012,07,05,10,42,16.10
2012,07,05,10,43,16.20
2012,07,05,10,44,16.40
2012,07,05,10,45,16.40
2012,07,05,10,46,16.40
2012,07,05,10,47,16.40
2012,07,05,10,48,16.30
2012,07,05,10,49,16.30
2012,07,05,10,50,16.30
2012,07,05,10,51,16.30
2012,07,05,10,52,16.30
2012,07,05,10,53,16.30
2012,07,05,10,54,16.30
2012,07,05,10,55,16.20
2012,07,05,10,56,16.10
2012,07,05,10,57,16.00
2012,07,05,10,58,16.00
2012,07,05,10,59,16.10
2012,07,05,11,00,16.10
2012,07,05,11,01,16.20
2012,07,05,11,02,16.20
2012,07,05,11,03,16.40
2012,07,05,11,04,16.50
2012,07,05,11,05,16.60
2012,07,05,11,06,16.60
2012,07,05,11,07,16.50
2012,07,05,11,08,16.40
2012,07,05,11,09,16.40
2012,07,05,11,10,16.50
2012,07,05,11,11,16.70
2012,07,05,11,12,16.80
2012,07,05,11,13,17.00
2012,07,05,11,14,17.30
2012,07,05,11,15,17.50
2012,07,05,11,16,17.60
2012,07,05,11,17,17.80
2012,07,05,11,18,17.70
2012,07,05,11,19,17.60
2012,07,05,11,20,17.60
2012,07,05,11,21,17.60
2012,07,05,11,22,17.50
2012,07,05,11,23,17.40
2012,07,05,11,24,17.30
2012,07,05,11,25,17.30
2012,07,05,11,26,17.30
2012,07,05,11,27,17.30
2012,07,05,11,28,17.40
2012,07,05,11,29,17.50
2012,07,05,11,30,17.40
2012,07,05,11,31,17.30
2012,07,05,11,32,17.10
2012,07,05,11,33,17.00
2012,07,05,11,34,17.00
2012,07,05,11,35,17.00
2012,07,05,11,36,17.10
2012,07,05,11,37,17.20
2012,07,05,11,38,17.20
2012,07,05,11,39,17.30
2012,07,05,11,40,17.30
2012,07,05,11,41,17.30
2012,07,05,11,42,17.40
2012,07,05,11,43,17.50
2012,07,05,11,44,17.70
2012,07,05,11,45,17.90
2012,07,05,11,46,18.00
2012,07,05,11,47,18.10
2012,07,05,11,48,18.10
2012,07,05,11,49,18.00
2012,07,05,11,50,17.90
2012,07,05,11,51,18.00
2012,07,05,11,52,17.90
2012,07,05,11,53,17.80
2012,07,05,11,54,17.60
2012,07,05,11,55,17.50
2012,07,05,11,56,17.40
2012,07,05,11,57,17.30
2012,07,05,11,58,17.40
2012,07,05,11,59,17.60
2012,07,05,12,00,17.60
2012,07,05,12,01,17.60
2012,07,05,12,02,17.60
2012,07,05,12,03,17.70
2012,07,05,12,04,17.60
2012,07,05,12,05,17.70
2012,07,05,12,06,17.70
2012,07,05,12,07,17.50
2012,07,05,12,08,17.40
2012,07,05,12,09,17.30
2012,07,05,12,10,17.30
2012,07,05,12,11,17.50
2012,07,05,12,12,17.50
2012,07,05,12,13,17.50
2012,07,05,12,14,17.40
2012,07,05,12,15,17.50
2012,07,05,12,16,17.50
2012,07,05,12,17,17.70
2012,07,05,12,18,17.80
2012,07,05,12,19,17.90
2012,07,05,12,20,18.10
2012,07,05,12,21,18.20
2012,07,05,12,22,18.20
2012,07,05,12,23,18.20
2012,07,05,12,24,18.20
2012,07,05,12,25,18.20
2012,07,05,12,26,18.20
2012,07,05,12,27,18.10
2012,07,05,12,28,18.00
2012,07,05,12,29,17.90
2012,07,05,12,30,17.90
2012,07,05,12,31,17.90
2012,07,05,12,32,17.90
2012,07,05,12,33,17.80
2012,07,05,12,34,17.70
2012,07,05,12,35,17.50
2012,07,05,12,36,17.50
2012,07,05,12,37,17.40
2012,07,05,12,38,17.50
2012,07,05,12,39,17.40
2012,07,05,12,40,17.40
2012,07,05,12,41,17.40
2012,07,05,12,42,17.40
2012,07,05,12,43,17.50
2012,07,05,12,44,17.60
2012,07,05,12,45,17.50
2012,07,05,12,46,17.40
2012,07,05,12,47,17.30
2012,07,05,12,48,17.30
2012,07,05,12,49,17.30
2012,07,05,12,50,17.30
2012,07,05,12,51,17.40
2012,07,05,12,52,17.40
2012,07,05,12,53,17.50
2012,07,05,12,54,17.50
2012,07,05,12,55,17.50
2012,07,05,12,56,17.50
2012,07,05,12,57,17.80
2012,07,05,12,58,17.90
2012,07,05,12,59,18.10
2012,07,05,13,00,18.20
2012,07,05,13,01,18.20
2012,07,05,13,02,18.30
2012,07,05,13,03,18.30
2012,07,05,13,04,18.10
2012,07,05,13,05,18.10
2012,07,05,13,06,18.10
2012,07,05,13,07,18.00
2012,07,05,13,08,18.00
2012,07,05,13,09,18.20
2012,07,05,13,10,18.20
2012,07,05,13,11,18.10
2012,07,05,13,12,18.20
2012,07,05,13,13,18.20
2012,07,05,13,14,18.10
2012,07,05,13,15,18.10
2012,07,05,13,16,18.10
2012,07,05,13,17,18.10
2012,07,05,13,18,18.20
2012,07,05,13,19,18.20
2012,07,05,13,20,18.20
2012,07,05,13,21,18.20
2012,07,05,13,22,18.20
2012,07,05,13,23,18.20
2012,07,05,13,24,18.40
2012,07,05,13,25,18.50
2012,07,05,13,26,18.50
2012,07,05,13,27,18.50
2012,07,05,13,28,18.50
2012,07,05,13,29,18.50
2012,07,05,13,30,18.60
2012,07,05,13,31,18.60
2012,07,05,13,32,18.70
2012,07,05,13,33,18.60
2012,07,05,13,34,18.50
2012,07,05,13,35,18.40
2012,07,05,13,36,18.30
2012,07,05,13,37,18.30
2012,07,05,13,38,18.30
2012,07,05,13,39,18.30
2012,07,05,13,40,18.30
2012,07,05,13,41,18.20
2012,07,05,13,42,18.20
2012,07,05,13,43,18.30
2012,07,05,13,44,18.30
2012,07,05,13,45,18.40
2012,07,05,13,46,18.60
2012,07,05,13,47,18.90
2012,07,05,13,48,18.90
2012,07,05,13,49,18.90
2012,07,05,13,50,18.80
2012,07,05,13,51,18.70
2012,07,05,13,52,18.60
2012,07,05,13,53,18.50
2012,07,05,13,54,18.40
2012,07,05,13,55,18.20
2012,07,05,13,56,18.20
2012,07,05,13,57,18.20
2012,07,05,13,58,18.20
2012,07,05,13,59,18.20
2012,07,05,14,00,18.20
2012,07,05,14,01,18.20
2012,07,05,14,02,18.30
2012,07,05,14,03,18.40
2012,07,05,14,04,18.40
2012,07,05,14,05,18.50
2012,07,05,14,06,18.60
2012,07,05,14,07,18.70
2012,07,05,14,08,18.80
2012,07,05,14,09,18.70
2012,07,05,14,10,18.70
2012,07,05,14,11,18.70
2012,07,05,14,12,18.60
2012,07,05,14,13,18.70
2012,07,05,14,14,18.70
2012,07,05,14,15,18.70
2012,07,05,14,16,18.50
2012,07,05,14,17,18.40
2012,07,05,14,18,18.30
2012,07,05,14,19,18.30
2012,07,05,14,20,18.30
2012,07,05,14,21,18.40
2012,07,05,14,22,18.50
2012,07,05,14,23,18.60
2012,07,05,14,24,18.80
2012,07,05,14,25,19.00
2012,07,05,14,26,19.10
2012,07,05,14,27,19.20
2012,07,05,14,28,19.30
2012,07,05,14,29,19.50
2012,07,05,14,30,19.50
2012,07,05,14,31,19.40
2012,07,05,14,32,19.30
2012,07,05,14,33,19.30
2012,07,05,14,34,19.20
2012,07,05,14,35,19.10
2012,07,05,14,36,19.00
2012,07,05,14,37,18.90
2012,07,05,14,38,18.70
2012,07,05,14,39,18.70
2012,07,05,14,40,18.70
2012,07,05,14,41,18.70
2012,07,05,14,42,18.70
2012,07,05,14,43,18.70
2012,07,05,14,44,18.70
2012,07,05,14,45,18.60
2012,07,05,14,46,18.60
2012,07,05,14,47,18.70
2012,07,05,14,48,18.80
2012,07,05,14,49,18.90
2012,07,05,14,50,18.90
2012,07,05,14,51,18.90
2012,07,05,14,52,19.00
2012,07,05,14,53,19.10
2012,07,05,14,54,19.10
2012,07,05,14,55,19.10
2012,07,05,14,56,19.00
2012,07,05,14,57,18.90
2012,07,05,14,58,18.80
2012,07,05,14,59,18.70
2012,07,05,15,00,18.50
2012,07,05,15,01,18.50
2012,07,05,15,02,18.50
2012,07,05,15,03,18.50
2012,07,05,15,04,18.60
2012,07,05,15,05,18.70
2012,07,05,15,06,18.70
2012,07,05,15,07,18.70
2012,07,05,15,08,18.70
2012,07,05,15,09,18.60
2012,07,05,15,10,18.60
2012,07,05,15,11,18.60
2012,07,05,15,12,18.60
2012,07,05,15,13,18.70
2012,07,05,15,14,18.70
2012,07,05,15,15,18.70
2012,07,05,15,16,18.90
2012,07,05,15,17,18.90
2012,07,05,15,18,18.90
2012,07,05,15,19,18.90
2012,07,05,15,20,18.90
2012,07,05,15,21,19.00
2012,07,05,15,22,19.10
2012,07,05,15,23,19.10
2012,07,05,15,24,19.20
2012,07,05,15,25,19.30
2012,07,05,15,26,19.40
2012,07,05,15,27,19.50
2012,07,05,15,28,19.70
2012,07,05,15,29,19.80
2012,07,05,15,30,19.90
2012,07,05,15,31,19.90
2012,07,05,15,32,19.90
2012,07,05,15,33,19.80
2012,07,05,15,34,19.50
2012,07,05,15,35,19.50
2012,07,05,15,36,19.60
2012,07,05,15,37,19.70
2012,07,05,15,38,19.80
2012,07,05,15,39,19.80
2012,07,05,15,40,19.80
2012,07,05,15,41,19.80
2012,07,05,15,42,19.80
2012,07,05,15,43,19.80
2012,07,05,15,44,19.70
2012,07,05,15,45,19.60
2012,07,05,15,46,19.50
2012,07,05,15,47,19.50
2012,07,05,15,48,19.50
2012,07,05,15,49,19.60
2012,07,05,15,50,19.60
2012,07,05,15,51,19.80
2012,07,05,15,52,19.90
2012,07,05,15,53,20.00
2012,07,05,15,54,20.00
2012,07,05,15,55,19.90
2012,07,05,15,56,19.90
2012,07,05,15,57,19.90
2012,07,05,15,58,19.90
2012,07,05,15,59,19.90
2012,07,05,16,00,19.80
2012,07,05,16,01,19.80
2012,07,05,16,02,19.90
2012,07,05,16,03,19.90
2012,07,05,16,04,19.90
2012,07,05,16,05,19.90
2012,07,05,16,06,20.00
2012,07,05,16,07,20.10
2012,07,05,16,08,20.10
2012,07,05,16,09,20.10
2012,07,05,16,10,20.10
2012,07,05,16,11,20.10
2012,07,05,16,12,20.10
2012,07,05,16,13,20.20
2012,07,05,16,14,20.20
2012,07,05,16,15,20.20
2012,07,05,16,16,20.20
2012,07,05,16,17,20.20
2012,07,05,16,18,20.20
2012,07,05,16,19,20.20
2012,07,05,16,20,20.30
2012,07,05,16,21,20.40
2012,07,05,16,22,20.40
2012,07,05,16,23,20.40
2012,07,05,16,24,20.40
2012,07,05,16,25,20.50
2012,07,05,16,26,20.50
2012,07,05,16,27,20.50
2012,07,05,16,28,20.60
2012,07,05,16,29,20.60
2012,07,05,16,30,20.50
2012,07,05,16,31,20.30
2012,07,05,16,32,20.30
2012,07,05,16,33,20.20
2012,07,05,16,34,20.20
2012,07,05,16,35,20.20
2012,07,05,16,36,20.20
2012,07,05,16,37,20.20
2012,07,05,16,38,20.30
2012,07,05,16,39,20.50
2012,07,05,16,40,20.50
2012,07,05,16,41,20.50
2012,07,05,16,42,20.60
2012,07,05,16,43,20.60
2012,07,05,16,44,20.60
2012,07,05,16,45,20.50
2012,07,05,16,46,20.50
2012,07,05,16,47,20.50
2012,07,05,16,48,20.50
2012,07,05,16,49,20.50
2012,07,05,16,50,20.60
2012,07,05,16,51,20.70
2012,07,05,16,52,20.80
2012,07,05,16,53,20.90
2012,07,05,16,54,20.90
2012,07,05,16,55,20.90
2012,07,05,16,56,20.90
2012,07,05,16,57,20.90
2012,07,05,16,58,20.90
2012,07,05,16,59,20.90
2012,07,05,17,00,20.80
2012,07,05,17,01,20.80
2012,07,05,17,02,20.60
2012,07,05,17,03,20.60
2012,07,05,17,04,20.60
2012,07,05,17,05,20.60
2012,07,05,17,06,20.50
2012,07,05,17,07,20.50
2012,07,05,17,08,20.50
2012,07,05,17,09,20.50
2012,07,05,17,10,20.60
2012,07,05,17,11,20.70
2012,07,05,17,12,20.70
2012,07,05,17,13,20.70
2012,07,05,17,14,20.70
2012,07,05,17,15,20.60
2012,07,05,17,16,20.50
2012,07,05,17,17,20.50
2012,07,05,17,18,20.40
2012,07,05,17,19,20.30
2012,07,05,17,20,20.40
2012,07,05,17,21,20.40
2012,07,05,17,22,20.40
2012,07,05,17,23,20.40
2012,07,05,17,24,20.40
2012,07,05,17,25,20.40
2012,07,05,17,26,20.40
2012,07,05,17,27,20.50
2012,07,05,17,28,20.60
2012,07,05,17,29,20.70
2012,07,05,17,30,20.80